{"data":{"norad_id":48115,"intl_designator":"2021-027Z","name":"STARLINK-2452","alt_names":[],"object_type":"PAYLOAD","status":"ACTIVE","operator":null,"country":"US","launch_date":"2021-04-07","launch_site_code":"AFETR","launch_vehicle":null,"mission":null,"orbit_class":"UNKNOWN","rcs_meters":null,"size_class":null,"mass_kg":null,"dimensions":null,"purposes":["comms"],"wikipedia_slug":null,"has_3d_model":false,"image_url":null,"decayed_at":null,"tle_current":{"epoch":"2026-09-20T04:56:15.605088Z","epoch_age_seconds":55371,"freshness":"FRESH","line1":"1 48115U 21027Z   26263.20573617  .00000753  00000+0  36019-4 0  9998","line2":"2 48115  53.1603 329.6730 0001062  81.0521 279.0601 15.31703668302454","mean_motion":15.31703668,"eccentricity":0.0001062,"inclination_deg":53.1603,"raan_deg":329.673,"arg_perigee_deg":81.0521,"mean_anomaly_deg":279.0601,"bstar":3.6019e-5,"rev_number":30245,"period_min":94.012962825914,"perigee_km":470.00171155464,"apogee_km":471.45641070603,"semimajor_km":6848.8660611303,"source":"CELESTRAK","updated_at":"2026-09-20T09:00:38.764394Z"}}}